Flag for Germany Weather past 2 weeks in Hockenheim, Baden-Württemberg, Germany

Now
39 °F

Light rain. Low clouds.


Feels Like: 34 °F
Forecast: 34 / 40 °F
Wind: 8 mph from South

Location: Baden Wurttemberg - Neuostheim

Current Time: Jan 29, 2015 at 7:32:05 PM

Latest Report: Jan 29, 2015 at 6:50 PM


Visibility: N/A

Pressure: 29.00 "Hg

Humidity: 93%

Dew point: 37 °F

Location of HockenheimLocation

Historic Weather in Hockenheim — Graph

°F

Hockenheim temperature yesterday

Maximum temperature yesterday: 41 °F (at 1:50 PM)
Minimum temperature yesterday: 37 °F (at 5:50 AM)
Average temperature yesterday: 39 °F

Past Weeks' High & Low Weather Summary

 TemperatureHumidityPressure
High52 °F (Jan 15, 1:20 PM)100% (Jan 16, 10:20 AM)30.45 "Hg (Jan 16, 10:20 AM)
Low28 °F (Jan 19, 5:20 AM)54% (Jan 15, 1:20 PM)29.03 "Hg (Jan 29, 6:20 PM)
Average37 °F86%29.96 "Hg
* Reported Jan 14 6:20 PM — Jan 29 6:20 PM, Hockenheim, Weather by CustomWeather, © 2014

Note: Actual official high and low records may vary slightly from our data, if they occured in-between our weather recording intervals... More about our weather records

Advertising

Hockenheim weather history for previous 24 hours

 ConditionsComfort  
Time TempWeatherWind HumidityBarometerVisibility
6:20 PM
Jan 29
39 °FLight rain. Low clouds.10 mph93%29.03 "HgN/A
5:50 PM39 °FLight rain. Passing clouds.9 mph93%29.06 "HgN/A
5:20 PM39 °FLight rain. Passing clouds.9 mph93%29.09 "HgN/A
4:50 PM39 °FLight rain. Partly sunny.8 mph93%29.09 "HgN/A
4:20 PM39 °FLight rain. Broken clouds.10 mph87%29.12 "HgN/A
3:50 PM39 °FLight rain. Broken clouds.14 mph87%29.15 "HgN/A
3:20 PM39 °FLight rain. Broken clouds.10 mph87%29.18 "HgN/A
2:50 PM39 °FPartly sunny.13 mph87%29.21 "HgN/A
2:20 PM39 °FLight rain. Partly sunny.12 mph87%29.24 "HgN/A
1:50 PM37 °FLight rain. Partly sunny.9 mph93%29.27 "HgN/A
1:20 PM36 °FLight rain. Partly sunny.9 mph93%29.30 "Hg5 mi
12:50 PM37 °FLight rain. Partly sunny.15 mph87%29.33 "Hg5 mi
12:20 PM37 °FLight rain. Partly sunny.20 mph87%29.33 "HgN/A
11:50 AM39 °FPartly sunny.13 mph81%29.36 "HgN/A
11:20 AM39 °FPartly sunny.14 mph75%29.39 "HgN/A
10:50 AM37 °FPartly sunny.15 mph81%29.39 "HgN/A
10:20 AM37 °FLight rain. Partly sunny.15 mph81%29.42 "HgN/A
9:50 AM37 °FPartly sunny.13 mph81%29.45 "HgN/A
9:20 AM36 °FScattered showers. Broken clouds.13 mph81%29.45 "HgN/A
8:50 AM36 °FMostly cloudy.12 mph81%29.47 "HgN/A
8:20 AM36 °FSunny.10 mph81%29.47 "Hg10 mi
7:50 AM36 °FPartly cloudy.12 mph81%29.50 "HgN/A
7:20 AM36 °FPassing clouds.9 mph81%29.50 "HgN/A
6:50 AM36 °FPassing clouds.9 mph81%29.50 "HgN/A
6:20 AM36 °FClear.7 mph81%29.50 "Hg10 mi
5:50 AM36 °FClear.8 mph75%29.53 "Hg10 mi
8:50 PM
Jan 28
39 °FLight rain. Mostly cloudy.13 mph93%29.56 "HgN/A
8:20 PM39 °FLight rain. Overcast.14 mph93%29.59 "Hg6 mi
7:50 PM41 °FLight rain. Mostly cloudy.15 mph81%29.59 "HgN/A
7:20 PM41 °FOvercast.21 mph76%29.59 "HgN/A
Weather by CustomWeather, © 2014

See weather overviewHow to use our weather pages